N57WS LFMN-LEIB

Flight info

Callsign N57WS
Flight time 1h 15m
Altitude 36000
Route RUBAS DCT BALEN DCT SORAS N850 POS
Aircraft A343/H-SDE2E3FGHIJ4J5M1RWXY/LB1D1

Departure

Time 2026-05-07 20:35
Airport Nice-Côte d'Azur Airport (LFMN)

Arrival

Time 2026-05-07 21:50
Airport Ibiza Airport (LEIB)
Time Latitude Longitude Altitude Speed Heading
2026-05-07 20:04 43.66609 7.21663 26 ft 0 kts 312°
2026-05-07 20:22 43.66600 7.21675 32 ft 4 kts 318°
2026-05-07 20:22 43.66581 7.21700 31 ft 4 kts 310°
2026-05-07 20:23 43.66569 7.21730 32 ft 4 kts 266°
2026-05-07 20:23 43.66578 7.21763 32 ft 4 kts 230°
2026-05-07 20:23 43.66586 7.21776 32 ft 1 kts 225°
2026-05-07 20:23 43.66587 7.21777 32 ft 0 kts 225°
2026-05-07 20:26 43.66587 7.21776 26 ft 0 kts 225°
2026-05-07 20:26 43.66581 7.21768 26 ft 4 kts 225°
2026-05-07 20:27 43.66552 7.21729 28 ft 7 kts 224°
2026-05-07 20:27 43.66510 7.21671 29 ft 10 kts 225°
2026-05-07 20:27 43.66451 7.21590 29 ft 14 kts 225°
2026-05-07 20:27 43.66376 7.21485 31 ft 17 kts 228°
2026-05-07 20:28 43.66295 7.21359 30 ft 19 kts 223°
2026-05-07 20:28 43.66196 7.21226 32 ft 21 kts 225°
2026-05-07 20:28 43.66089 7.21077 31 ft 23 kts 225°
2026-05-07 20:28 43.65977 7.20923 29 ft 18 kts 224°
2026-05-07 20:29 43.65908 7.20844 30 ft 11 kts 200°
2026-05-07 20:29 43.65835 7.20860 29 ft 12 kts 168°
2026-05-07 20:29 43.65748 7.20879 26 ft 10 kts 171°
2026-05-07 20:29 43.65703 7.20889 30 ft 0 kts 171°
2026-05-07 20:32 43.65693 7.20891 28 ft 3 kts 171°
2026-05-07 20:32 43.65639 7.20904 26 ft 13 kts 170°
2026-05-07 20:32 43.65516 7.20930 27 ft 21 kts 171°
2026-05-07 20:32 43.65375 7.20960 30 ft 18 kts 180°
2026-05-07 20:33 43.65284 7.20868 30 ft 18 kts 225°
2026-05-07 20:33 43.65190 7.20736 30 ft 23 kts 225°
2026-05-07 20:33 43.65072 7.20575 26 ft 25 kts 225°
2026-05-07 20:33 43.64945 7.20400 26 ft 27 kts 225°
2026-05-07 20:34 43.64840 7.20254 26 ft 18 kts 225°
2026-05-07 20:34 43.64764 7.20187 26 ft 12 kts 187°
2026-05-07 20:34 43.64704 7.20248 26 ft 9 kts 109°
2026-05-07 20:34 43.64722 7.20315 26 ft 9 kts 50°
2026-05-07 20:35 43.64875 7.20528 26 ft 71 kts 44°
2026-05-07 20:35 43.65451 7.21317 36 ft 160 kts 45°
2026-05-07 20:35 43.66031 7.22102 585 ft 173 kts 44°
2026-05-07 20:35 43.66913 7.23306 1644 ft 183 kts 51°
2026-05-07 20:36 43.67180 7.25006 2428 ft 193 kts 105°
2026-05-07 20:36 43.66300 7.26400 3264 ft 203 kts 152°
2026-05-07 20:36 43.64967 7.27251 4105 ft 217 kts 152°
2026-05-07 20:36 43.63713 7.28375 5248 ft 219 kts 141°
2026-05-07 20:37 43.62579 7.29797 6392 ft 222 kts 134°
2026-05-07 20:37 43.61506 7.31356 7501 ft 225 kts 136°
2026-05-07 20:37 43.60190 7.32531 8584 ft 228 kts 160°
2026-05-07 20:37 43.58609 7.32745 9647 ft 234 kts 190°
2026-05-07 20:38 43.57109 7.31860 10652 ft 238 kts 211°
2026-05-07 20:38 43.55732 7.30586 11644 ft 240 kts 214°
2026-05-07 20:38 43.54351 7.29262 12671 ft 243 kts 214°
2026-05-07 20:38 43.52944 7.27934 13498 ft 246 kts 213°
2026-05-07 20:39 43.51494 7.26584 13998 ft 263 kts 213°
2026-05-07 20:39 43.49903 7.25120 14385 ft 287 kts 213°
2026-05-07 20:39 43.48173 7.23537 14776 ft 309 kts 213°
2026-05-07 20:39 43.46324 7.21850 15154 ft 329 kts 213°
2026-05-07 20:40 43.44353 7.20054 15526 ft 349 kts 213°
2026-05-07 20:40 43.42279 7.18167 16010 ft 364 kts 213°
2026-05-07 20:40 43.40136 7.16219 16718 ft 373 kts 213°
2026-05-07 20:40 43.37953 7.14237 17502 ft 379 kts 214°
2026-05-07 20:41 43.35741 7.12230 18321 ft 384 kts 214°
2026-05-07 20:41 43.33500 7.10199 19059 ft 387 kts 214°
2026-05-07 20:41 43.31278 7.08187 19808 ft 390 kts 214°
2026-05-07 20:41 43.29009 7.06134 20584 ft 393 kts 214°
2026-05-07 20:42 43.26717 7.04062 21326 ft 396 kts 214°
2026-05-07 20:42 43.24407 7.01976 22045 ft 399 kts 215°
2026-05-07 20:42 43.22083 6.99879 22757 ft 402 kts 215°
2026-05-07 20:42 43.19733 6.97769 23405 ft 406 kts 214°
2026-05-07 20:43 43.17260 6.95857 23993 ft 411 kts 207°
2026-05-07 20:43 43.14605 6.94371 24617 ft 413 kts 202°
2026-05-07 20:43 43.11896 6.93030 25227 ft 414 kts 202°
2026-05-07 20:43 43.09209 6.91719 25809 ft 415 kts 202°
2026-05-07 20:44 43.06484 6.90385 26399 ft 416 kts 202°
2026-05-07 20:44 43.03751 6.89044 26955 ft 417 kts 202°
2026-05-07 20:44 43.01014 6.87701 27470 ft 419 kts 202°
2026-05-07 20:44 42.98259 6.86348 27934 ft 422 kts 202°
2026-05-07 20:45 42.95489 6.84988 28454 ft 424 kts 202°
2026-05-07 20:45 42.92711 6.83626 29017 ft 424 kts 202°
2026-05-07 20:45 42.89933 6.82264 29617 ft 423 kts 202°
2026-05-07 20:45 42.87159 6.80906 30096 ft 424 kts 202°
2026-05-07 20:46 42.84368 6.79540 30467 ft 426 kts 202°
2026-05-07 20:46 42.81573 6.78173 30797 ft 429 kts 202°
2026-05-07 20:46 42.78753 6.76795 31087 ft 432 kts 202°
2026-05-07 20:46 42.75923 6.75414 31539 ft 431 kts 202°
2026-05-07 20:47 42.73112 6.74046 32109 ft 427 kts 202°
2026-05-07 20:47 42.70325 6.72689 32669 ft 424 kts 202°
2026-05-07 20:47 42.67554 6.71342 33203 ft 421 kts 202°
2026-05-07 20:47 42.64802 6.70004 33728 ft 419 kts 202°
2026-05-07 20:48 42.62068 6.68677 34189 ft 416 kts 202°
2026-05-07 20:48 42.59372 6.67368 34525 ft 416 kts 202°
2026-05-07 20:48 42.56637 6.66042 34836 ft 417 kts 202°
2026-05-07 20:48 42.55406 6.65445 34970 ft 417 kts 202°
2026-05-07 20:49 42.53763 6.64649 35144 ft 418 kts 202°
2026-05-07 20:49 42.51023 6.63324 35469 ft 418 kts 202°
2026-05-07 20:50 42.48280 6.61997 35733 ft 420 kts 202°
2026-05-07 20:50 42.45515 6.60661 35871 ft 424 kts 202°
2026-05-07 20:50 42.42721 6.59312 35965 ft 429 kts 202°
2026-05-07 20:51 42.37039 6.56459 35982 ft 438 kts 205°
2026-05-07 20:51 42.31496 6.53092 35978 ft 436 kts 207°
2026-05-07 20:52 42.26015 6.49602 35989 ft 435 kts 207°
2026-05-07 20:52 42.20535 6.46125 35991 ft 436 kts 207°
2026-05-07 20:53 42.15063 6.42691 35986 ft 437 kts 207°
2026-05-07 20:53 42.09512 6.39226 35986 ft 437 kts 207°
2026-05-07 20:54 42.04027 6.35811 35982 ft 437 kts 207°
2026-05-07 20:54 41.98508 6.32379 35987 ft 438 kts 207°
2026-05-07 20:55 41.92973 6.28944 35988 ft 438 kts 207°
2026-05-07 20:55 41.87436 6.25514 35987 ft 438 kts 207°
2026-05-07 20:56 41.81903 6.22093 35984 ft 438 kts 207°
2026-05-07 20:56 41.76368 6.18677 35980 ft 439 kts 207°
2026-05-07 20:57 41.70819 6.15260 35986 ft 439 kts 207°
2026-05-07 20:57 41.65267 6.11847 35986 ft 439 kts 207°
2026-05-07 20:58 41.59716 6.08441 35997 ft 439 kts 207°
2026-05-07 20:58 41.54170 6.05044 35985 ft 439 kts 207°
2026-05-07 20:59 41.48626 6.01656 35986 ft 438 kts 207°
2026-05-07 20:59 41.43069 5.98265 35985 ft 439 kts 207°
2026-05-07 21:00 41.37516 5.94882 35981 ft 438 kts 206°
2026-05-07 21:00 41.31969 5.91510 35984 ft 438 kts 206°
2026-05-07 21:01 41.26426 5.88147 35986 ft 438 kts 206°
2026-05-07 21:01 41.20913 5.84809 35980 ft 438 kts 206°
2026-05-07 21:02 41.15364 5.81455 35979 ft 438 kts 206°
2026-05-07 21:02 41.09812 5.78105 35982 ft 438 kts 206°
2026-05-07 21:03 41.04258 5.74762 35981 ft 438 kts 206°
2026-05-07 21:03 40.98800 5.71198 35968 ft 437 kts 213°
2026-05-07 21:04 40.94171 5.66037 35983 ft 438 kts 229°
2026-05-07 21:04 40.90864 5.59230 35982 ft 442 kts 240°
2026-05-07 21:05 40.88093 5.51977 35985 ft 442 kts 242°
2026-05-07 21:05 40.85379 5.44678 35982 ft 442 kts 242°
2026-05-07 21:06 40.82633 5.37404 35981 ft 442 kts 241°
2026-05-07 21:06 40.79876 5.30198 35995 ft 443 kts 242°
2026-05-07 21:07 40.77082 5.22934 35984 ft 445 kts 242°
2026-05-07 21:07 40.74276 5.15655 35988 ft 445 kts 242°
2026-05-07 21:08 40.71462 5.08371 35989 ft 445 kts 241°
2026-05-07 21:08 40.68649 5.01104 35989 ft 445 kts 241°
2026-05-07 21:09 40.65829 4.93838 36001 ft 445 kts 242°
2026-05-07 21:09 40.62995 4.86556 35997 ft 448 kts 242°
2026-05-07 21:10 40.60150 4.79260 35999 ft 448 kts 242°
2026-05-07 21:10 40.57298 4.71966 36001 ft 448 kts 242°
2026-05-07 21:11 40.54443 4.64680 35997 ft 448 kts 242°
2026-05-07 21:11 40.50149 4.53754 35997 ft 449 kts 242°
2026-05-07 21:12 40.47290 4.46504 35996 ft 450 kts 242°
2026-05-07 21:12 40.44387 4.39156 35999 ft 451 kts 242°
2026-05-07 21:13 40.41512 4.31899 35998 ft 451 kts 242°
2026-05-07 21:13 40.38614 4.24600 36003 ft 450 kts 242°
2026-05-07 21:14 40.35722 4.17333 36001 ft 449 kts 242°
2026-05-07 21:14 40.32822 4.10065 36007 ft 450 kts 242°
2026-05-07 21:15 40.29915 4.02796 36007 ft 450 kts 242°
2026-05-07 21:15 40.27005 3.95539 36005 ft 450 kts 242°
2026-05-07 21:16 40.24089 3.88286 36004 ft 450 kts 242°
2026-05-07 21:16 40.21168 3.81035 36012 ft 450 kts 242°
2026-05-07 21:17 40.18267 3.73853 35999 ft 449 kts 243°
2026-05-07 21:17 40.15351 3.66652 36004 ft 448 kts 243°
2026-05-07 21:18 40.12429 3.59467 36002 ft 448 kts 242°
2026-05-07 21:18 40.09501 3.52287 36001 ft 448 kts 242°
2026-05-07 21:19 40.06568 3.45100 36002 ft 448 kts 242°
2026-05-07 21:19 40.03631 3.37928 36001 ft 448 kts 242°
2026-05-07 21:20 40.00689 3.30756 36001 ft 448 kts 242°
2026-05-07 21:20 39.97746 3.23598 35999 ft 448 kts 243°
2026-05-07 21:21 39.95299 3.17656 35987 ft 447 kts 243°
2026-05-07 21:21 39.91654 3.11104 35999 ft 453 kts 224°
2026-05-07 21:22 39.88199 3.08067 35979 ft 457 kts 213°
2026-05-07 21:22 39.86309 3.06690 35980 ft 458 kts 212°
2026-05-07 21:22 39.80723 3.02679 36002 ft 459 kts 212°
2026-05-07 21:23 39.75140 2.98647 35985 ft 459 kts 213°
2026-05-07 21:23 39.69547 2.94598 35991 ft 460 kts 213°
2026-05-07 21:24 39.63949 2.90551 35992 ft 461 kts 213°
2026-05-07 21:24 39.58388 2.86536 35970 ft 461 kts 213°
2026-05-07 21:25 39.52778 2.82494 35963 ft 461 kts 214°
2026-05-07 21:25 39.47172 2.78460 35991 ft 461 kts 214°
2026-05-07 21:26 39.42113 2.73588 35993 ft 449 kts 232°
2026-05-07 21:26 39.38149 2.67370 35988 ft 448 kts 234°
2026-05-07 21:27 39.34229 2.61103 35963 ft 449 kts 235°
2026-05-07 21:27 39.30305 2.54876 35639 ft 442 kts 236°
2026-05-07 21:28 39.28429 2.51909 35132 ft 442 kts 236°
2026-05-07 21:28 39.26477 2.48819 34661 ft 446 kts 236°
2026-05-07 21:28 39.24503 2.45701 34191 ft 448 kts 236°
2026-05-07 21:28 39.22536 2.42599 33326 ft 447 kts 236°
2026-05-07 21:29 39.20562 2.39486 32184 ft 452 kts 235°
2026-05-07 21:29 39.18560 2.36333 31152 ft 456 kts 234°
2026-05-07 21:29 39.16544 2.33162 30407 ft 459 kts 233°
2026-05-07 21:29 39.14510 2.29968 29713 ft 463 kts 233°
2026-05-07 21:30 39.12464 2.26760 28935 ft 460 kts 234°
2026-05-07 21:30 39.10451 2.23611 28247 ft 452 kts 233°
2026-05-07 21:30 39.08474 2.20519 27587 ft 443 kts 234°
2026-05-07 21:30 39.06556 2.17521 26942 ft 436 kts 234°
2026-05-07 21:31 39.04621 2.14497 26270 ft 429 kts 233°
2026-05-07 21:31 39.02761 2.11592 25616 ft 423 kts 233°
2026-05-07 21:31 39.00899 2.08687 24962 ft 418 kts 232°
2026-05-07 21:31 38.99056 2.05814 24298 ft 414 kts 231°
2026-05-07 21:32 38.97231 2.02969 23644 ft 411 kts 231°
2026-05-07 21:32 38.95418 2.00149 22907 ft 407 kts 231°
2026-05-07 21:32 38.93623 1.97361 22235 ft 402 kts 231°
2026-05-07 21:32 38.91877 1.94581 21569 ft 397 kts 234°
2026-05-07 21:33 38.90537 1.91521 20916 ft 393 kts 248°
2026-05-07 21:33 38.89722 1.88191 20266 ft 390 kts 255°
2026-05-07 21:33 38.89042 1.84839 19606 ft 387 kts 255°
2026-05-07 21:33 38.88375 1.81510 18961 ft 384 kts 255°
2026-05-07 21:34 38.87705 1.78199 18315 ft 382 kts 255°
2026-05-07 21:34 38.87033 1.74908 17609 ft 379 kts 255°
2026-05-07 21:34 38.86364 1.71653 16955 ft 376 kts 255°
2026-05-07 21:34 38.85700 1.68428 16311 ft 372 kts 255°
2026-05-07 21:35 38.85039 1.65231 15668 ft 369 kts 255°
2026-05-07 21:35 38.84384 1.62066 15032 ft 366 kts 255°
2026-05-07 21:35 38.83731 1.58916 14387 ft 364 kts 255°
2026-05-07 21:35 38.83058 1.55788 13757 ft 362 kts 255°
2026-05-07 21:36 38.82368 1.52702 13071 ft 359 kts 254°
2026-05-07 21:36 38.81685 1.49659 12770 ft 347 kts 256°
2026-05-07 21:36 38.81035 1.46754 12642 ft 332 kts 256°
2026-05-07 21:36 38.80397 1.43974 12504 ft 315 kts 253°
2026-05-07 21:37 38.79565 1.41507 12351 ft 287 kts 245°
2026-05-07 21:37 38.78676 1.39326 12011 ft 267 kts 244°
2026-05-07 21:37 38.77817 1.37264 11531 ft 257 kts 245°
2026-05-07 21:37 38.76985 1.35263 10961 ft 252 kts 244°
2026-05-07 21:38 38.76167 1.33287 10335 ft 250 kts 245°
2026-05-07 21:38 38.75357 1.31330 9727 ft 248 kts 243°
2026-05-07 21:38 38.74543 1.29363 9111 ft 252 kts 243°
2026-05-07 21:38 38.73723 1.27387 8779 ft 249 kts 244°
2026-05-07 21:39 38.72917 1.25441 8278 ft 248 kts 244°
2026-05-07 21:39 38.72101 1.23488 7755 ft 249 kts 244°
2026-05-07 21:39 38.71281 1.21526 7247 ft 250 kts 244°
2026-05-07 21:39 38.70462 1.19566 6730 ft 251 kts 243°
2026-05-07 21:40 38.69639 1.17596 6258 ft 251 kts 244°
2026-05-07 21:40 38.68818 1.15633 5757 ft 250 kts 244°
2026-05-07 21:40 38.67991 1.13653 5177 ft 253 kts 243°
2026-05-07 21:40 38.67170 1.11684 4648 ft 254 kts 243°
2026-05-07 21:41 38.66337 1.09694 4162 ft 253 kts 243°
2026-05-07 21:41 38.65509 1.07722 3677 ft 250 kts 243°
2026-05-07 21:41 38.64863 1.05674 3212 ft 256 kts 264°
2026-05-07 21:41 38.65029 1.03378 3024 ft 260 kts 294°
2026-05-07 21:42 38.65983 1.01570 2990 ft 235 kts 324°
2026-05-07 21:42 38.67374 1.00747 2994 ft 211 kts 356°
2026-05-07 21:42 38.68757 1.00920 2997 ft 193 kts 17°
2026-05-07 21:42 38.70030 1.01413 3000 ft 191 kts 20°
2026-05-07 21:43 38.71289 1.01958 3004 ft 190 kts 20°
2026-05-07 21:43 38.72485 1.02649 2992 ft 190 kts 41°
2026-05-07 21:43 38.73340 1.03924 3008 ft 189 kts 55°
2026-05-07 21:43 38.74023 1.05359 3003 ft 189 kts 60°
2026-05-07 21:44 38.74654 1.06838 3004 ft 190 kts 60°
2026-05-07 21:44 38.75274 1.08337 3003 ft 190 kts 61°
2026-05-07 21:44 38.75896 1.09838 3003 ft 191 kts 61°
2026-05-07 21:44 38.76522 1.11337 3001 ft 190 kts 60°
2026-05-07 21:45 38.77146 1.12831 3002 ft 191 kts 60°
2026-05-07 21:45 38.77771 1.14330 2999 ft 190 kts 60°
2026-05-07 21:45 38.78391 1.15822 3007 ft 189 kts 59°
2026-05-07 21:45 38.79002 1.17297 2995 ft 183 kts 60°
2026-05-07 21:46 38.79571 1.18674 2972 ft 172 kts 60°
2026-05-07 21:46 38.80112 1.19982 2868 ft 162 kts 60°
2026-05-07 21:46 38.80629 1.21231 2597 ft 155 kts 60°
2026-05-07 21:46 38.81117 1.22408 2367 ft 143 kts 60°
2026-05-07 21:47 38.81560 1.23479 2168 ft 129 kts 60°
2026-05-07 21:47 38.81967 1.24462 2015 ft 123 kts 60°
2026-05-07 21:47 38.82370 1.25441 1865 ft 125 kts 60°
2026-05-07 21:47 38.82773 1.26428 1689 ft 125 kts 62°
2026-05-07 21:48 38.83175 1.27408 1487 ft 124 kts 61°
2026-05-07 21:48 38.83573 1.28381 1352 ft 123 kts 61°
2026-05-07 21:48 38.83981 1.29343 1163 ft 123 kts 57°
2026-05-07 21:48 38.84397 1.30296 1020 ft 123 kts 62°
2026-05-07 21:49 38.84780 1.31271 845 ft 122 kts 60°
2026-05-07 21:49 38.85181 1.32244 727 ft 124 kts 57°
2026-05-07 21:49 38.85598 1.33201 535 ft 122 kts 59°
2026-05-07 21:49 38.85979 1.34164 337 ft 117 kts 58°
2026-05-07 21:50 38.86359 1.35065 215 ft 114 kts 58°
2026-05-07 21:50 38.86713 1.35965 85 ft 112 kts 59°
2026-05-07 21:50 38.87063 1.36786 33 ft 85 kts 63°
2026-05-07 21:50 38.87258 1.37247 35 ft 39 kts 62°
2026-05-07 21:51 38.87386 1.37444 38 ft 25 kts 33°
2026-05-07 21:51 38.87490 1.37523 43 ft 7 kts 33°
2026-05-07 21:51 38.87523 1.37550 45 ft 5 kts 31°
2026-05-07 21:51 38.87542 1.37558 46 ft 1 kts
2026-05-07 21:52 38.87553 1.37553 47 ft 1 kts 334°
2026-05-07 21:52 38.87556 1.37544 48 ft 3 kts 305°
2026-05-07 21:52 38.87540 1.37473 48 ft 15 kts 238°
2026-05-07 21:52 38.87484 1.37337 47 ft 19 kts 244°
2026-05-07 21:53 38.87413 1.37172 45 ft 23 kts 240°
2026-05-07 21:53 38.87339 1.36990 43 ft 18 kts 242°
2026-05-07 21:53 38.87306 1.36910 42 ft 7 kts 242°
2026-05-07 21:53 38.87303 1.36855 42 ft 5 kts 299°
2026-05-07 21:54 38.87334 1.36833 44 ft 8 kts 333°
2026-05-07 21:54 38.87399 1.36788 46 ft 11 kts 328°
2026-05-07 21:54 38.87412 1.36729 47 ft 5 kts 244°
2026-05-07 21:54 38.87391 1.36682 47 ft 3 kts 239°
2026-05-07 21:55 38.87368 1.36672 46 ft 5 kts 176°
2026-05-07 21:55 38.87343 1.36683 45 ft 4 kts 155°
2026-05-07 21:55 38.87336 1.36689 45 ft 0 kts 149°
2026-05-07 21:55 38.87327 1.36702 44 ft 3 kts 124°
2026-05-07 21:56 38.87323 1.36724 44 ft 1 kts 92°
2026-05-07 21:56 38.87323 1.36725 44 ft 0 kts 90°